This is the latest recevied weather packets stored in our database for station/object KB4MOX. If no packets are shown the sender has not sent any weather packets the latest 10 day(s).
| Time | Temp. | Humidity | Pressure | Rain* | Wind** | Luminosity | Snow |
|---|---|---|---|---|---|---|---|
| 1787663396 | 23.89° C | 71% | 1017.7 hPa | 0 mm | - | 90 W/m² | - |
| 1787663093 | 23.33° C | 73% | 1017.8 hPa | 0 mm | - | 96 W/m² | - |
| 1787662789 | 22.78° C | 74% | 1017.7 hPa | 0 mm | - | 91 W/m² | - |
| 1787662483 | 22.78° C | 73% | 1017.8 hPa | 0 mm | - | 81 W/m² | - |
| 1787662179 | 22.22° C | 74% | 1017.6 hPa | 0 mm | - | 74 W/m² | - |
| 1787661874 | 22.22° C | 74% | 1017.7 hPa | 0 mm | - | 74 W/m² | - |
| 1787661573 | 21.67° C | 75% | 1017.6 hPa | 0 mm | - | 74 W/m² | - |
| 1787661272 | 21.67° C | 74% | 1017.5 hPa | 0 mm | - | 68 W/m² | - |
| 1787660971 | 21.67° C | 74% | 1017.6 hPa | 0 mm | - | 59 W/m² | - |
| 1787660667 | 21.67° C | 74% | 1017.5 hPa | 0 mm | - | 48 W/m² | - |
| 1787660362 | 21.67° C | 74% | 1017.6 hPa | 0 mm | - | 43 W/m² | - |
| 1787660056 | 21.67° C | 74% | 1017.5 hPa | 0 mm | - | 38 W/m² | - |
| 1787659755 | 21.67° C | 75% | 1017.6 hPa | 0 mm | - | 35 W/m² | - |
| 1787659449 | 21.67° C | 74% | 1017.5 hPa | 0 mm | - | 33 W/m² | - |
| 1787659149 | 21.11° C | 74% | 1017.6 hPa | 0 mm | - | 33 W/m² | - |
| 1787658844 | 21.11° C | 75% | 1017.3 hPa | 0 mm | - | 31 W/m² | - |
| 1787658543 | 20.56° C | 75% | 1017.2 hPa | 0 mm | - | 31 W/m² | - |
| 1787658240 | 20.56° C | 76% | 1017.1 hPa | 0 mm | - | 29 W/m² | - |
| 1787657939 | 20.56° C | 76% | 1017.2 hPa | 0 mm | - | 23 W/m² | - |
| 1787657634 | 20.56° C | 76% | 1017 hPa | 0 mm | - | 18 W/m² | - |
| 1787657329 | 20.56° C | 75% | 1017 hPa | 0 mm | - | 14 W/m² | - |
| 1787657025 | 20.56° C | 76% | 1016.9 hPa | 0 mm | - | 11 W/m² | - |
| 1787656722 | 20.56° C | 75% | 1016.8 hPa | 0 mm | - | 9 W/m² | - |
| 1787656417 | 20.56° C | 75% | 1016.9 hPa | 0 mm | - | 6 W/m² | - |
| 1787656117 | 20.56° C | 75% | 1016.7 hPa | 0 mm | - | 3 W/m² | - |
* Rain latest hour (hover to see other rain measurements)
** Current wind speed in m/s (hover to see current wind gust speed)